Location: Castillon
(43.0896°N, 0.2156°E)
Time: 16:30:08
(UTC+00:00)

Cosmos 1461 - Pass Details

Date: 16 June 2021
Orbit: 513 x 649 km, 65.0° (Epoch: 03 August)

Event Time Altitude Azimuth Distance (km) Brightness Sun altitude
Rises 21:22:45 0° 329° (NNW) 2,816 8.3 -14.3°
Reaches altitude 10° 21:25:06 10° 335° (NNW) 1,888 6.9 -14.6°
Maximum altitude 21:29:14 52° 52° (NE) 692 3.3 -15.0°
Enters shadow 21:31:20 25° 119° (ESE) 1,115 3.9 -15.3°
